Location: Fort Wayne
(41.1310°N, 85.1290°W)
Time: 13:19:48
(UTC-04:00)

COSMOS 2428 - Visible Passes

Search period start: 27 March 2015 00:00
Search period end: 06 April 2015 00:00
Orbit: 847 x 854 km, 71.0° (Epoch: 27 March)

Date Brightness Start Highest point End Pass type
(mag) Time Alt. Az. Time Alt. Az. Time Alt. Az.
27 Mar 2.8 20:42:26 10° NNW 20:48:04 60° ENE 20:53:42 10° SE visible
27 Mar 5.0 22:27:56 10° WNW 22:31:52 19° W 22:35:35 10° SW visible
28 Mar 2.8 20:30:04 10° NNW 20:35:42 60° ENE 20:41:20 10° SE visible
28 Mar 5.1 22:15:34 10° WNW 22:19:30 19° W 22:23:14 10° SW visible
29 Mar 2.8 20:17:42 10° NNW 20:23:21 60° ENE 20:28:57 10° SE visible
29 Mar 5.1 22:03:11 10° WNW 22:07:08 19° W 22:10:53 10° SW visible
30 Mar 5.2 21:50:49 10° WNW 21:54:47 19° W 21:58:32 10° SW visible
31 Mar 5.2 21:38:27 10° WNW 21:42:25 19° W 21:46:10 10° SW visible
01 Apr 5.3 21:26:04 10° NW 21:30:03 19° W 21:33:49 10° SW visible
02 Apr 5.3 21:13:42 10° NW 21:17:41 19° W 21:21:28 10° SW visible
03 Apr 5.4 21:01:19 10° NW 21:05:19 19° W 21:09:07 10° SW visible
04 Apr 5.4 20:48:56 10° NW 20:52:57 19° W 20:56:45 10° SW visible
05 Apr 5.4 20:36:34 10° NW 20:40:35 19° W 20:44:24 10° SW visible
